Dunkirk, NY

11:33 AM EST on February 27, 2017 (GMT -0500)
Chautauqua County-Dunkirk

Weather History for KDKK - February, 2014

Change the Weather History Date:

Saturday, February 22, 2014

  Actual Average Record
Temperature  
Mean Temperature 38 °F -  
Max Temperature 41 °F 43 °F 67 °F (1930)
Min Temperature 36 °F 24 °F -6 °F (1936)
Degree Days  
Heating Degree Days 26    
Moisture  
Dew Point 18 °F    
Average Humidity 46    
Maximum Humidity 67    
Minimum Humidity 32    
Precipitation  
Precipitation 0.00 in - - ()
Sea Level Pressure  
Sea Level Pressure 29.90 in    
Wind  
Wind Speed 21 mph (SW)    
Max Wind Speed 31 mph    
Max Gust Speed 48 mph    
Visibility 10 miles    
Events Rain , Snow    
Averages and records for this station are not official NWS values.
T = Trace of Precipitation, MM = Missing Value Source: NWS Daily Summary

Daily Weather History Graph

Daily Weather History Graph

Search for Another Location

Airport or City:

Trip Planner

Search our weather history database for the weather conditions in past years. The results will help you decide how hot, cold, wet, or windy it might be!

Date:

Astronomy

Feb. 22, 2014 Rise Set
Actual Time 7:03 AM EST 5:58 PM EST
Civil Twilight 6:35 AM EST 6:26 PM EST
Nautical Twilight 6:02 AM EST 6:59 PM EST
Astronomical Twilight 5:29 AM EST 7:32 PM EST
Moon 12:59 AM EST (2/22) 11:04 AM EST (2/22)
Length of Visible Light 11h 51m
Length of Day
10h 54m
Waning Gibbous, 50% of the Moon is Illuminated
Feb 22
Waning Gibbous
Feb 22
Last Quarter
Mar 1
New
Mar 8
First Quarter
Mar 16
Full

Hourly Weather History & Observations

Time (EST) Temp. Windchill Dew Point Humidity Pressure Visibility Wind Dir Wind Speed Gust Speed Precip Events Conditions
12:53 AM 37.9 °F 27.1 °F 14.0 °F 38% 29.84 in 10.0 mi SW 23.0 mph 36.8 mph N/A   Clear
1:53 AM 37.9 °F 27.6 °F 16.0 °F 41% 29.86 in 10.0 mi SW 20.7 mph 38.0 mph N/A   Clear
2:53 AM 37.0 °F 27.7 °F 17.1 °F 44% 29.85 in 10.0 mi SSW 16.1 mph 24.2 mph N/A   Mostly Cloudy
3:53 AM 36.0 °F 26.7 °F 17.1 °F 46% 29.83 in 10.0 mi SSW 15.0 mph 23.0 mph N/A   Partly Cloudy
4:53 AM 36.0 °F 26.3 °F 17.1 °F 46% 29.81 in 10.0 mi South 16.1 mph 34.5 mph N/A   Overcast
5:53 AM 37.9 °F 27.9 °F 16.0 °F 41% 29.80 in 10.0 mi SSW 19.6 mph 27.6 mph N/A   Overcast
6:53 AM 39.0 °F 30.6 °F 17.1 °F 41% 29.80 in 10.0 mi SSW 15.0 mph 26.5 mph 0.00 in   Overcast
7:53 AM 41.0 °F 31.9 °F 19.0 °F 41% 29.82 in 10.0 mi SW 19.6 mph 28.8 mph N/A   Overcast
8:53 AM 41.0 °F 31.1 °F 21.0 °F 45% 29.85 in 10.0 mi WSW 23.0 mph 34.5 mph N/A   Mostly Cloudy
9:53 AM 39.0 °F 28.3 °F 26.1 °F 60% 29.88 in 10.0 mi WSW 24.2 mph 41.4 mph 0.00 in Rain Light Rain
10:53 AM 39.0 °F 28.0 °F 21.9 °F 50% 29.91 in 10.0 mi WSW 25.3 mph 48.3 mph 0.00 in Rain Light Rain
11:53 AM 39.0 °F 27.8 °F 17.1 °F 41% 29.93 in 10.0 mi WSW 26.5 mph 40.3 mph 0.00 in Rain Light Rain
12:53 PM 39.9 °F 30.0 °F 12.0 °F 32% 29.92 in 10.0 mi WSW 21.9 mph 41.4 mph 0.00 in Rain Light Rain
1:53 PM 39.9 °F 28.4 °F 12.9 °F 33% 29.93 in 10.0 mi SW 29.9 mph 43.7 mph 0.00 in Rain Light Rain
2:53 PM 39.0 °F 27.2 °F 10.9 °F 32% 29.94 in 10.0 mi SW 29.9 mph 39.1 mph 0.00 in   Mostly Cloudy
3:53 PM 37.0 °F 26.2 °F 12.9 °F 37% 29.96 in 9.0 mi WSW 21.9 mph 43.7 mph 0.00 in   Overcast
4:53 PM 37.0 °F 24.3 °F 12.0 °F 36% 29.96 in 10.0 mi SW 31.1 mph 42.6 mph 0.00 in Snow Light Snow
5:53 PM 37.9 °F 27.6 °F 15.1 °F 39% 29.98 in 10.0 mi WSW 20.7 mph 28.8 mph 0.00 in   Overcast
6:53 PM 39.0 °F 29.0 °F 18.0 °F 43% 29.97 in 10.0 mi SW 20.7 mph 39.1 mph N/A   Overcast
7:53 PM 37.9 °F 28.5 °F 25.0 °F 60% 29.98 in 10.0 mi WSW 17.3 mph 28.8 mph N/A   Overcast
8:53 PM 37.9 °F 30.0 °F 26.1 °F 62% 29.97 in 10.0 mi SW 12.7 mph 24.2 mph N/A   Overcast
9:53 PM 37.0 °F 28.1 °F 27.0 °F 67% 29.98 in 10.0 mi SW 15.0 mph 23.0 mph N/A   Mostly Cloudy
10:53 PM 37.9 °F 28.9 °F 26.1 °F 62% 29.97 in 10.0 mi SW 16.1 mph 23.0 mph N/A   Overcast
11:53 PM 37.9 °F 29.2 °F 25.0 °F 60% 29.98 in 10.0 mi WSW 15.0 mph 23.0 mph N/A   Overcast